TimeCST,TemperatureF,Dew PointF,Humidity,Sea Level PressureIn,VisibilityMPH,Wind Direction,Wind SpeedMPH,Gust SpeedMPH,PrecipitationIn,Events,Conditions,WindDirDegrees,DateUTC
12:53 AM,35.1,33.1,92,29.97,9.0,ESE,3.5,-,N/A,,Clear,110,2012-11-09 06:53:00
1:53 AM,34.0,30.9,89,29.97,7.0,ESE,3.5,-,N/A,,Clear,120,2012-11-09 07:53:00
2:53 AM,34.0,30.9,89,29.97,7.0,SE,4.6,-,N/A,,Clear,130,2012-11-09 08:53:00
3:53 AM,35.1,33.1,92,29.96,6.0,ESE,6.9,-,N/A,,Clear,120,2012-11-09 09:53:00
4:53 AM,36.0,33.1,89,29.96,6.0,SE,5.8,-,N/A,,Partly Cloudy,130,2012-11-09 10:53:00
5:53 AM,34.0,32.0,92,29.98,4.0,ENE,4.6,-,N/A,,Overcast,70,2012-11-09 11:53:00
6:53 AM,37.0,35.1,93,29.99,5.0,East,4.6,-,N/A,,Overcast,100,2012-11-09 12:53:00
7:53 AM,39.9,36.0,86,29.99,5.0,East,5.8,-,N/A,,Overcast,90,2012-11-09 13:53:00
8:53 AM,41.0,37.0,86,29.99,6.0,East,9.2,-,N/A,,Overcast,90,2012-11-09 14:53:00
9:53 AM,45.0,37.9,76,29.98,7.0,East,10.4,-,N/A,,Clear,80,2012-11-09 15:53:00
10:53 AM,48.0,39.0,71,29.98,9.0,ESE,10.4,-,N/A,,Partly Cloudy,110,2012-11-09 16:53:00
11:53 AM,51.1,39.9,66,29.95,10.0,East,12.7,-,N/A,,Mostly Cloudy,100,2012-11-09 17:53:00
12:53 PM,52.0,39.9,63,29.91,9.0,ESE,15.0,-,N/A,,Partly Cloudy,110,2012-11-09 18:53:00
1:53 PM,53.1,39.9,61,29.88,9.0,ESE,16.1,-,N/A,,Overcast,110,2012-11-09 19:53:00
2:53 PM,54.0,41.0,62,29.87,8.0,East,11.5,-,N/A,,Clear,100,2012-11-09 20:53:00
3:53 PM,54.0,39.9,59,29.87,10.0,ESE,12.7,19.6,N/A,,Clear,120,2012-11-09 21:53:00
4:53 PM,51.1,41.0,68,29.89,9.0,ESE,10.4,-,N/A,,Scattered Clouds,110,2012-11-09 22:53:00
5:53 PM,48.9,41.0,74,29.90,7.0,ESE,9.2,-,N/A,,Partly Cloudy,110,2012-11-09 23:53:00
6:53 PM,50.0,39.9,68,29.90,8.0,ESE,12.7,-,N/A,,Overcast,110,2012-11-10 00:53:00
7:53 PM,48.9,41.0,74,29.90,7.0,East,13.8,-,N/A,,Overcast,100,2012-11-10 01:53:00
8:53 PM,48.9,41.0,74,29.89,6.0,East,13.8,-,N/A,,Haze,100,2012-11-10 02:53:00
9:53 PM,48.9,41.0,74,29.88,6.0,East,10.4,-,N/A,,Haze,90,2012-11-10 03:53:00
10:53 PM,48.0,41.0,77,29.87,5.0,East,12.7,-,N/A,,Haze,90,2012-11-10 04:53:00
11:53 PM,48.0,41.0,77,29.85,5.0,East,13.8,-,N/A,,Haze,90,2012-11-10 05:53:00